sat.trackr.live / text

‹ back to catalog

SKYSAT-C2

NORAD 41773 · 2016-058D

PAYLOAD ACTIVE UNKNOWN

§ Identity

Operator
Country
US
Launch date
2016-09-16
Launch site
FRGUI
Launch vehicle
Mass (kg)
RCS (m²)
0.34

Purposes: earth_obs

External: N2YO · Heavens-Above · Gunter

§ Orbital elements

Epoch: 2026-05-25T00:35:00.383136Z

Period
93.42 min
Inclination
97.0185°
Eccentricity
0.0005080
Mean motion
15.41468443 rev/d
Perigee alt
438.3 km
Apogee alt
445.2 km
Semi-major
6,819.9 km
B*
2.6985e-4
RAAN
167.9998°
Arg perigee
119.8267°
Mean anomaly
240.3486°
Rev number
54,148

§ Raw data

SKYSAT-C21 41773U 16058D   26145.02430999  .00011228  00000+0  26985-3 0  99922 41773  97.0185 167.9998 0005080 119.8267 240.3486 15.41468443541489

JSON: /api/v1/satellites/41773 · /tle

For live sub-satellite position, see the globe view (requires WebGL).

§ Visibility from observer

Set your observer location to see the next 7 days of passes ≥ 10°. The values pass through the URL so the page stays shareable.

No JS? Fill the form by hand. The geolocation button needs JavaScript.